Location: Squirrel Cove
(50.1074°N, 124.9139°W)
Time: 13:37:14
(UTC-07:00)

PCSat - Pass Details

Date: 23 May 2022
Orbit: 784 x 795 km, 67.1° (Epoch: 26 June)

Event Time Altitude Azimuth Distance (km) Brightness Sun altitude
Rises 00:12:16 0° 315° (NW) 3,304 13.9 -17.9°
Reaches altitude 10° 00:15:54 10° 340° (NNW) 2,374 13.3 -18.0°
Maximum altitude 00:18:50 14° 12° (NNE) 2,074 12.6 -18.2°
Drops below altitude 10° 00:21:46 10° 45° (NE) 2,373 12.4 -18.3°
Sets 00:25:24 0° 70° (ENE) 3,301 12.9 -18.4°
